This is the latest recevied weather packets stored in our database for station/object K0SNA. If no packets are shown the sender has not sent any weather packets the latest 10 day(s).
| Time | Temp. | Humidity | Pressure | Rain* | Wind** | Luminosity | Snow |
|---|---|---|---|---|---|---|---|
| 1777775127 | 16.67° C | 40% | 1010.7 hPa | 0 mm | - | 0 W/m² | - |
| 1777774821 | 16.67° C | 40% | 1010.6 hPa | 0 mm | - | 0 W/m² | - |
| 1777774518 | 16.67° C | 39% | 1010.9 hPa | 0 mm | - | 0 W/m² | - |
| 1777774215 | 17.22° C | 38% | 1010.9 hPa | 0 mm | - | 0 W/m² | - |
| 1777773913 | 17.22° C | 37% | 1010.8 hPa | 0 mm | - | 0 W/m² | - |
| 1777773609 | 17.22° C | 38% | 1010.8 hPa | 0 mm | - | 0 W/m² | - |
| 1777773306 | 17.22° C | 38% | 1010.9 hPa | 0 mm | - | 0 W/m² | - |
| 1777773003 | 17.22° C | 38% | 1010.9 hPa | 0 mm | - | 0 W/m² | - |
| 1777772699 | 17.22° C | 37% | 1010.9 hPa | 0 mm | - | 0 W/m² | - |
| 1777772397 | 17.22° C | 36% | 1010.8 hPa | 0 mm | - | 0 W/m² | - |
| 1777772094 | 17.22° C | 35% | 1010.8 hPa | 0 mm | - | 0 W/m² | - |
| 1777771791 | 17.22° C | 36% | 1010.8 hPa | 0 mm | - | 0 W/m² | - |
| 1777771489 | 17.78° C | 35% | 1010.7 hPa | 0 mm | - | 0 W/m² | - |
| 1777771185 | 17.78° C | 35% | 1010.5 hPa | 0 mm | - | 1 W/m² | - |
| 1777770882 | 17.78° C | 35% | 1010.8 hPa | 0 mm | - | 2 W/m² | - |
| 1777770579 | 17.78° C | 35% | 1011 hPa | 0 mm | - | 3 W/m² | - |
| 1777770276 | 17.78° C | 35% | 1010.8 hPa | 0 mm | - | 4 W/m² | - |
| 1777769973 | 17.78° C | 36% | 1011 hPa | 0 mm | - | 4 W/m² | - |
| 1777769670 | 17.78° C | 36% | 1010.9 hPa | 0 mm | - | 4 W/m² | - |
| 1777769367 | 17.22° C | 38% | 1011 hPa | 0 mm | - | 5 W/m² | - |
| 1777769064 | 17.22° C | 38% | 1010.9 hPa | 0 mm | - | 7 W/m² | - |
| 1777768761 | 17.22° C | 38% | 1011 hPa | 0 mm | - | 14 W/m² | - |
| 1777768458 | 17.22° C | 38% | 1011.2 hPa | 0 mm | - | 13 W/m² | - |
| 1777768155 | 17.22° C | 39% | 1011.3 hPa | 0 mm | - | 10 W/m² | - |
| 1777767852 | 17.22° C | 40% | 1011.4 hPa | 0 mm | - | 8 W/m² | - |
* Rain latest hour (hover to see other rain measurements)
** Current wind speed in m/s (hover to see current wind gust speed)